Kelso-Longview, WA
on Friday, November 23, 2012

Friday
Previous Day Next Day
Daily Summary
 ActualAverage (KSPB)Record (KSPB)
Temperature
Mean Temperature °F °F  
Max Temperature 51°F °F 57°F (2008)
Min Temperature 44°F °F 14°F (2010)
Degree Days
Heating Degree Days 18    
Month to date heating degree days  
Since 1 July heating degree days  
Cooling Degree Days 0    
Month to date cooling degree days  
Year to date cooling degree days  
Moisture
Dew Point 42°F   
Average Humidity 81    
Maximum Humidity 93    
Minimum Humidity 66    
Precipitation
Precipitation 0.67 in in 0.90 in (2011)
Month to date precipitation  
Year to date precipitation  
Wind
Wind Speed 10 mph   
Max Wind Speed 17 mph   
Max Gust Speed 26 mph   
Visibility 10 miles   
Events     

Key: T is trace of precipitation, MM is missing value
Source: NWS Daily Summary
Time(PST)TemperatureDew PointHumidity Pressure Visibility Wind DirectionWind SpeedGust SpeedPrecipitationEvents Conditions
12:15 AM 46.4°F 35.6°F 66% 30.24 in 10.0 miles SSE 9.2 mph - N/A   Overcast
12:35 AM 46.4°F 35.6°F 66% 30.25 in 10.0 miles SSE 8.1 mph - N/A   Overcast
12:55 AM 46.4°F 35.6°F 66% 30.25 in 10.0 miles SSE 6.9 mph - N/A   Overcast
1:15 AM 46.4°F 35.6°F 66% 30.23 in 10.0 miles SE 9.2 mph - N/A   Mostly Cloudy
1:35 AM 46.4°F 35.6°F 66% 30.23 in 10.0 miles SSE 6.9 mph - N/A   Mostly Cloudy
1:55 AM 46.4°F 35.6°F 66% 30.23 in 10.0 miles SSE 6.9 mph - N/A   Mostly Cloudy
2:15 AM 46.4°F 35.6°F 66% 30.23 in 10.0 miles SSE 9.2 mph - N/A   Scattered Clouds
2:35 AM 46.4°F 35.6°F 66% 30.23 in 10.0 miles SSE 12.7 mph 17.3 mph N/A   Mostly Cloudy
2:55 AM 46.4°F 35.6°F 66% 30.22 in 10.0 miles SSE 15.0 mph 20.7 mph N/A   Overcast
3:15 AM 46.4°F 35.6°F 66% 30.22 in 10.0 miles SE 16.1 mph 21.9 mph N/A   Overcast
3:35 AM 44.6°F 35.6°F 71% 30.22 in 10.0 miles SSE 13.8 mph 20.7 mph N/A   Overcast
3:55 AM 46.4°F 35.6°F 66% 30.23 in 10.0 miles SSE 12.7 mph 18.4 mph N/A   Overcast
4:15 AM 46.4°F 35.6°F 66% 30.21 in 10.0 miles SSE 10.4 mph - N/A   Overcast
4:35 AM 44.6°F 35.6°F 71% 30.21 in 10.0 miles South 8.1 mph - N/A   Overcast
4:55 AM 44.6°F 35.6°F 71% 30.21 in 10.0 miles SE 8.1 mph - N/A   Overcast
5:15 AM 44.6°F 37.4°F 76% 30.22 in 10.0 miles SSE 9.2 mph - N/A   Overcast
5:35 AM 44.6°F 37.4°F 76% 30.22 in 10.0 miles ESE 5.8 mph - 0.01 in   Overcast
5:55 AM 44.6°F 37.4°F 76% 30.21 in 10.0 miles SE 8.1 mph - 0.03 in   Overcast
6:15 AM 44.6°F 37.4°F 76% 30.21 in 10.0 miles SSE 9.2 mph 16.1 mph N/A   Overcast
6:35 AM 44.6°F 37.4°F 76% 30.20 in 10.0 miles SSE 12.7 mph 21.9 mph 0.01 in   Mostly Cloudy
6:55 AM 44.6°F 37.4°F 76% 30.18 in 10.0 miles SSE 10.4 mph 19.6 mph 0.02 in   Overcast
7:15 AM 44.6°F 39.2°F 81% 30.21 in 10.0 miles South 11.5 mph 16.1 mph N/A   Overcast
7:35 AM 44.6°F 39.2°F 81% 30.20 in 10.0 miles SSE 11.5 mph - 0.01 in   Mostly Cloudy
7:55 AM 44.6°F 39.2°F 81% 30.20 in 10.0 miles SSE 9.2 mph 17.3 mph 0.03 in   Overcast
8:15 AM 44.6°F 39.2°F 81% 30.20 in 10.0 miles SSE 9.2 mph - 0.02 in   Overcast
8:35 AM 44.6°F 39.2°F 81% 30.21 in 10.0 miles SE 11.5 mph - 0.02 in   Overcast
8:55 AM 44.6°F 39.2°F 81% 30.21 in 10.0 miles SSE 12.7 mph - 0.02 in   Overcast
9:15 AM 44.6°F 39.2°F 81% 30.18 in 10.0 miles SSE 12.7 mph 24.2 mph 0.01 in   Overcast
9:35 AM 44.6°F 41.0°F 87% 30.19 in 10.0 miles SSE 12.7 mph 18.4 mph 0.02 in   Mostly Cloudy
9:55 AM 46.4°F 42.8°F 87% 30.18 in 10.0 miles SSE 10.4 mph - 0.03 in   Overcast
10:15 AM 46.4°F 42.8°F 87% 30.18 in 10.0 miles SSE 8.1 mph - N/A   Overcast
10:35 AM 46.4°F 42.8°F 87% 30.19 in 10.0 miles SSE 10.4 mph 16.1 mph 0.01 in   Overcast
10:55 AM 46.4°F 42.8°F 87% 30.19 in 10.0 miles SSE 10.4 mph 17.3 mph 0.02 in   Overcast
11:15 AM 46.4°F 42.8°F 87% 30.19 in 10.0 miles SSE 11.5 mph 17.3 mph 0.02 in   Overcast
11:35 AM 46.4°F 42.8°F 87% 30.17 in 10.0 miles SSE 13.8 mph 18.4 mph 0.03 in   Overcast
11:55 AM 46.4°F 42.8°F 87% 30.16 in 10.0 miles SSE 11.5 mph 17.3 mph 0.05 in   Overcast
12:15 PM 46.4°F 42.8°F 87% 30.16 in 10.0 miles SE 5.8 mph 18.4 mph 0.02 in   Overcast
12:35 PM 48.2°F 42.8°F 82% 30.15 in 10.0 miles SE 12.7 mph 18.4 mph 0.03 in   Overcast
12:55 PM 48.2°F 42.8°F 82% 30.14 in 10.0 miles SSE 13.8 mph 26.5 mph 0.03 in   Overcast
1:15 PM 48.2°F 42.8°F 82% 30.14 in 10.0 miles SE 12.7 mph 18.4 mph 0.01 in   Overcast
1:35 PM 48.2°F 42.8°F 82% 30.12 in 10.0 miles SE 12.7 mph 17.3 mph 0.01 in   Overcast
1:55 PM 48.2°F 42.8°F 82% 30.11 in 10.0 miles SE 12.7 mph 21.9 mph 0.02 in   Overcast
2:15 PM 48.2°F 42.8°F 82% 30.10 in 9.0 miles ESE 11.5 mph 19.6 mph 0.02 in   Overcast
2:35 PM 48.2°F 42.8°F 82% 30.10 in 10.0 miles SE 13.8 mph 21.9 mph 0.04 in   Overcast
2:55 PM 48.2°F 42.8°F 82% 30.10 in 10.0 miles SSE 11.5 mph 19.6 mph 0.06 in   Overcast
3:15 PM 48.2°F 42.8°F 82% 30.10 in 10.0 miles SE 12.7 mph 19.6 mph N/A   Overcast
3:35 PM 48.2°F 44.6°F 87% 30.09 in 10.0 miles SE 10.4 mph 23.0 mph 0.02 in   Overcast
3:55 PM 48.2°F 44.6°F 87% 30.10 in 10.0 miles SE 13.8 mph 23.0 mph 0.06 in   Overcast
4:15 PM 48.2°F 44.6°F 87% 30.11 in 9.0 miles SSE 5.8 mph - 0.04 in   Overcast
4:35 PM 48.2°F 44.6°F 87% 30.11 in 10.0 miles South 8.1 mph - 0.09 in   Overcast
4:55 PM 48.2°F 44.6°F 87% 30.10 in 10.0 miles SSE 6.9 mph - 0.13 in   Overcast
5:15 PM 48.2°F 44.6°F 87% 30.11 in 10.0 miles South 3.5 mph - 0.03 in   Overcast
5:35 PM 48.2°F 44.6°F 87% 30.11 in 10.0 miles South 4.6 mph - 0.05 in   Overcast
5:55 PM 48.2°F 44.6°F 87% 30.10 in 10.0 miles SSE 6.9 mph - 0.06 in   Overcast
6:15 PM 48.2°F 44.6°F 87% 30.10 in 10.0 miles SSE 8.1 mph - 0.02 in   Overcast
6:35 PM 48.2°F 44.6°F 87% 30.10 in 10.0 miles SSW 8.1 mph - 0.03 in   Overcast
6:55 PM 48.2°F 46.4°F 93% 30.12 in 10.0 miles SSW 3.5 mph - 0.05 in   Overcast
7:15 PM 48.2°F 46.4°F 93% 30.12 in 10.0 miles SE 9.2 mph - 0.02 in   Overcast
7:35 PM 48.2°F 46.4°F 93% 30.10 in 10.0 miles SE 13.8 mph 20.7 mph 0.04 in   Overcast
7:55 PM 50.0°F 46.4°F 87% 30.11 in 10.0 miles SSW 6.9 mph - 0.04 in   Overcast
8:15 PM 50.0°F 46.4°F 87% 30.13 in 10.0 miles SW 5.8 mph - N/A   Overcast
8:35 PM 50.0°F 46.4°F 87% 30.13 in 10.0 miles SSE 12.7 mph 16.1 mph N/A   Overcast
8:55 PM 50.0°F 46.4°F 87% 30.10 in 10.0 miles SE 17.3 mph 21.9 mph 0.01 in   Overcast
9:15 PM 50.0°F 46.4°F 87% 30.13 in 10.0 miles SW 8.1 mph - N/A   Overcast
9:35 PM 51.8°F 46.4°F 82% 30.14 in 10.0 miles SSW 6.9 mph 16.1 mph N/A   Overcast
9:55 PM 50.0°F 46.4°F 87% 30.14 in 10.0 miles WSW 6.9 mph - N/A   Overcast
10:15 PM 50.0°F 46.4°F 87% 30.15 in 2.5 miles South 8.1 mph - N/A   Overcast
10:35 PM 50.0°F 46.4°F 87% 30.16 in 3.0 miles South 3.5 mph - 0.01 in   Overcast
10:55 PM 50.0°F 46.4°F 87% 30.16 in 5.0 miles Calm Calm - 0.01 in   Overcast
11:15 PM 50.0°F 46.4°F 87% 30.17 in 3.0 miles Calm Calm - N/A   Overcast
11:35 PM 50.0°F 46.4°F 87% 30.17 in 10.0 miles Calm Calm - N/A   Overcast
11:55 PM 48.2°F 46.4°F 93% 30.17 in 10.0 miles Calm Calm - N/A   Overcast
Moon Phase
Nov. 23 Nov. 28 Dec. 06 Dec. 13 Dec. 20
Sunrise:07:24 AM (PST) Moon Rise:02:00 PM (PST)11/23
Sunset:04:31 PM (PST) Moon Set:02:35 AM (PST)11/23

Copyright © 2014 The Weather Underground, Inc.